Regional Weather Roundup
Issued by NWS

Home | Current Version | Previous Version | Text Only | Print | Product List | Glossary On
Versions: 1 2 3 4 5 6 7 8 9 10 11 12 13 14 15 16 17 18 19 20 21 22 23 24 25 26 27 28 29 30 31 32 33 34 35 36 37 38 39 40 41 42 43 44 45 46 47 48 49 50
131
ASUS43 KLMK 080010
RWRKY
KENTUCKY REGIONAL WEATHER ROUNDUP
NATIONAL WEATHER SERVICE LOUISVILLE KY
700 PM EST WED DEC 07 2016

NOTE "FAIR" INDICATES FEW OR NO CLOUDS BELOW 12,000 FEET
WITH NO SIGNIFICANT WEATHER AND/OR OBSTRUCTIONS TO VISIBILITY.

KYZ001>023-026-027-061>063-070>075-080100-
WESTERN AND SOUTH CENTRAL KENTUCKY

CITY           SKY/WX    TMP DP  RH WIND       PRES   REMARKS
PADUCAH        CLOUDY    40  21  46 N12       30.23R WCI  33
HENDERSON      CLOUDY    37  23  56 NW6       30.24R WCI  33
OWENSBORO      CLOUDY    38  27  64 NW9       30.23R WCI  31
HOPKINSVILLE   CLOUDY    41  22  47 N6        30.18R
BOWLING GREEN  CLOUDY    42  26  53 NW8       30.19R
GLASGOW        PTCLDY    37  24  61 N5        30.17R WCI  33
$$

KYZ024-025-028>034-038-045-046-053-080100-
NORTH CENTRAL KENTUCKY

CITY           SKY/WX    TMP DP  RH WIND       PRES   REMARKS
LOUISVILLE/SDF MOCLDY    37  19  48 W7        30.19R WCI  32
LOUISVILLE/LOU MOCLDY    38  20  48 NW5       30.19R WCI  34
FORT KNOX      CLOUDY    32  23  69 W3        30.18R
$$

KYZ035>037-039>044-047>052-055>060-089>105-080100-
NORTHEAST KENTUCKY

CITY           SKY/WX    TMP DP  RH WIND       PRES   REMARKS
LEXINGTON      CLOUDY    38  25  59 NW3       30.13F
COVINGTON      CLOUDY    35  23  61 SW5       30.14S WCI  31
FRANKFORT      CLOUDY    38  23  55 NW6       30.15R WCI  33
$$

KYZ054-064>069-076>088-106>120-080100-
SOUTHEAST KENTUCKY

CITY           SKY/WX    TMP DP  RH WIND       PRES   REMARKS
JACKSON        PTCLDY    40  28  62 CALM      30.11R
LONDON         PTCLDY    37  29  72 CALM      30.11S
SOMERSET       CLOUDY    37  27  65 CALM      30.14S
MIDDLESBORO    PTCLDY    41  32  71 CALM      30.12S
MONTICELLO     CLOUDY    33  28  81 CALM      30.15R
$$





USA.gov is the U.S. government's official web portal to all federal, state and local government web resources and services.